Time,TemperatureF,DewpointF,PressureIn,WindDirection,WindDirectionDegrees,WindSpeedMPH,WindSpeedGustMPH,Humidity,HourlyPrecipIn,Conditions,Clouds,dailyrainin,SoftwareType,DateUTC
2013-02-08 00:01:00,32.0,27.0,-100.00,SSW,213,4.0,10.0,82,-99.99,,,-99.99,,2013-02-08 00:01:00,
2013-02-08 01:01:00,28.0,25.0,-100.00,WSW,241,7.0,13.0,86,-99.99,,,-99.99,,2013-02-08 01:01:00,
2013-02-08 01:11:00,28.0,25.0,-100.00,WSW,241,7.0,13.0,86,-99.99,,,-99.99,,2013-02-08 01:11:00,
2013-02-08 01:21:00,28.0,24.0,-100.00,SW,215,5.0,12.0,84,-99.99,,,-99.99,,2013-02-08 01:21:00,
2013-02-08 01:31:00,28.0,24.0,-100.00,SW,215,5.0,12.0,84,-99.99,,,-99.99,,2013-02-08 01:31:00,
2013-02-08 01:41:00,27.0,24.0,-100.00,South,182,4.0,11.0,88,-99.99,,,-99.99,,2013-02-08 01:41:00,
2013-02-08 01:52:00,27.0,24.0,-100.00,South,182,4.0,11.0,88,-99.99,,,-99.99,,2013-02-08 01:52:00,
2013-02-08 02:01:00,27.0,23.0,-100.00,South,172,5.0,14.0,84,-99.99,,,-99.99,,2013-02-08 02:01:00,
2013-02-08 02:11:00,27.0,23.0,-100.00,South,172,5.0,14.0,84,-99.99,,,-99.99,,2013-02-08 02:11:00,
2013-02-08 02:21:00,28.0,21.0,-100.00,South,171,5.0,15.0,77,-99.99,,,-99.99,,2013-02-08 02:21:00,
2013-02-08 02:31:00,28.0,21.0,-100.00,South,171,5.0,15.0,77,-99.99,,,-99.99,,2013-02-08 02:31:00,
2013-02-08 02:42:00,27.0,22.0,-100.00,South,179,6.0,15.0,81,-99.99,,,-99.99,,2013-02-08 02:42:00,
2013-02-08 02:52:00,27.0,22.0,-100.00,South,179,6.0,15.0,81,-99.99,,,-99.99,,2013-02-08 02:52:00,
2013-02-08 03:01:00,27.0,22.0,-100.00,South,188,9.0,17.0,79,-99.99,,,-99.99,,2013-02-08 03:01:00,
2013-02-08 03:12:00,27.0,22.0,-100.00,South,188,9.0,17.0,79,-99.99,,,-99.99,,2013-02-08 03:12:00,
2013-02-08 03:22:00,27.0,18.0,-100.00,SSW,198,9.0,18.0,69,-99.99,,,-99.99,,2013-02-08 03:22:00,
2013-02-08 03:32:00,27.0,18.0,-100.00,SSW,198,9.0,18.0,69,-99.99,,,-99.99,,2013-02-08 03:32:00,
2013-02-08 03:41:00,26.0,18.0,-100.00,SW,222,5.0,11.0,70,-99.99,,,-99.99,,2013-02-08 03:41:00,
2013-02-08 03:52:00,26.0,18.0,-100.00,SW,222,5.0,11.0,70,-99.99,,,-99.99,,2013-02-08 03:52:00,
2013-02-08 04:01:00,26.0,18.0,-100.00,SW,229,4.0,13.0,71,-99.99,,,-99.99,,2013-02-08 04:01:00,
2013-02-08 04:11:00,26.0,18.0,-100.00,SW,229,4.0,13.0,71,-99.99,,,-99.99,,2013-02-08 04:11:00,
2013-02-08 04:21:00,26.0,18.0,-100.00,SW,229,6.0,14.0,71,-99.99,,,-99.99,,2013-02-08 04:21:00,
2013-02-08 04:32:00,26.0,18.0,-100.00,SW,229,6.0,14.0,71,-99.99,,,-99.99,,2013-02-08 04:32:00,
2013-02-08 04:41:00,26.0,18.0,-100.00,SW,229,6.0,14.0,71,-99.99,,,-99.99,,2013-02-08 04:41:00,
2013-02-08 05:02:00,25.0,17.0,-100.00,South,185,4.0,11.0,72,-99.99,,,-99.99,,2013-02-08 05:02:00,
2013-02-08 05:11:00,25.0,17.0,-100.00,South,185,4.0,11.0,72,-99.99,,,-99.99,,2013-02-08 05:11:00,
2013-02-08 05:22:00,25.0,17.0,-100.00,SSW,195,3.0,9.0,69,-99.99,,,-99.99,,2013-02-08 05:22:00,
2013-02-08 05:31:00,25.0,17.0,-100.00,SSW,195,3.0,9.0,69,-99.99,,,-99.99,,2013-02-08 05:31:00,
2013-02-08 05:41:00,25.0,17.0,-100.00,SSW,195,3.0,9.0,69,-99.99,,,-99.99,,2013-02-08 05:41:00,
2013-02-08 06:21:00,25.0,17.0,-100.00,SSW,196,3.0,8.0,70,-99.99,,,-99.99,,2013-02-08 06:21:00,
2013-02-08 06:31:00,25.0,17.0,-100.00,SSW,196,3.0,8.0,70,-99.99,,,-99.99,,2013-02-08 06:31:00,
2013-02-08 06:41:00,25.0,18.0,-100.00,SSW,210,5.0,12.0,74,-99.99,,,-99.99,,2013-02-08 06:41:00,
2013-02-08 06:52:00,25.0,18.0,-100.00,SSW,210,5.0,12.0,74,-99.99,,,-99.99,,2013-02-08 06:52:00,
2013-02-08 07:01:00,24.0,19.0,-100.00,SSW,196,2.0,12.0,81,-99.99,,,-99.99,,2013-02-08 07:01:00,
2013-02-08 07:11:00,24.0,19.0,-100.00,SSW,196,2.0,12.0,81,-99.99,,,-99.99,,2013-02-08 07:11:00,
2013-02-08 07:21:00,24.0,19.0,-100.00,SSW,196,2.0,12.0,81,-99.99,,,-99.99,,2013-02-08 07:21:00,
2013-02-08 07:42:00,24.0,21.0,-100.00,SSE,167,2.0,12.0,85,-99.99,,,-99.99,,2013-02-08 07:42:00,
2013-02-08 07:52:00,24.0,21.0,-100.00,SSE,167,2.0,12.0,85,-99.99,,,-99.99,,2013-02-08 07:52:00,
2013-02-08 08:01:00,24.0,19.0,-100.00,West,261,2.0,6.0,82,-99.99,,,-99.99,,2013-02-08 08:01:00,
2013-02-08 08:11:00,24.0,19.0,-100.00,West,261,2.0,6.0,82,-99.99,,,-99.99,,2013-02-08 08:11:00,
2013-02-08 08:21:00,24.0,19.0,-100.00,West,261,2.0,6.0,82,-99.99,,,-99.99,,2013-02-08 08:21:00,
2013-02-08 09:03:00,22.0,20.0,-100.00,North,1,0.0,2.0,90,-99.99,,,-99.99,,2013-02-08 09:03:00,
2013-02-08 09:11:00,22.0,20.0,-100.00,North,1,0.0,2.0,90,-99.99,,,-99.99,,2013-02-08 09:11:00,
2013-02-08 09:21:00,23.0,19.0,-100.00,North,4,1.0,3.0,88,-99.99,,,-99.99,,2013-02-08 09:21:00,
2013-02-08 09:31:00,23.0,19.0,-100.00,North,4,1.0,3.0,88,-99.99,,,-99.99,,2013-02-08 09:31:00,
2013-02-08 09:42:00,23.0,19.0,-100.00,North,4,1.0,3.0,88,-99.99,,,-99.99,,2013-02-08 09:42:00,
2013-02-08 10:01:00,23.0,17.0,-100.00,NE,34,0.0,3.0,79,-99.99,,,-99.99,,2013-02-08 10:01:00,
2013-02-08 10:11:00,23.0,17.0,-100.00,NE,34,0.0,3.0,79,-99.99,,,-99.99,,2013-02-08 10:11:00,
2013-02-08 10:22:00,23.0,18.0,-100.00,NE,51,0.0,1.0,80,-99.99,,,-99.99,,2013-02-08 10:22:00,
2013-02-08 10:31:00,23.0,18.0,-100.00,NE,51,0.0,1.0,80,-99.99,,,-99.99,,2013-02-08 10:31:00,
2013-02-08 10:41:00,23.0,18.0,-100.00,NE,51,0.0,1.0,80,-99.99,,,-99.99,,2013-02-08 10:41:00,
2013-02-08 11:01:00,23.0,17.0,-100.00,North,6,0.0,0.0,79,-99.99,,,-99.99,,2013-02-08 11:01:00,
2013-02-08 11:11:00,23.0,17.0,-100.00,North,6,0.0,0.0,79,-99.99,,,-99.99,,2013-02-08 11:11:00,
2013-02-08 11:21:00,23.0,17.0,-100.00,North,6,0.0,0.0,79,-99.99,,,-99.99,,2013-02-08 11:21:00,
2013-02-08 11:42:00,21.0,13.0,-100.00,East,80,2.0,4.0,70,-99.99,,,-99.99,,2013-02-08 11:42:00,
2013-02-08 11:52:00,21.0,13.0,-100.00,East,80,2.0,4.0,70,-99.99,,,-99.99,,2013-02-08 11:52:00,
2013-02-08 12:01:00,21.0,12.0,-100.00,ENE,73,2.0,9.0,67,-99.99,,,-99.99,,2013-02-08 12:01:00,
2013-02-08 12:11:00,21.0,12.0,-100.00,ENE,73,2.0,9.0,67,-99.99,,,-99.99,,2013-02-08 12:11:00,
2013-02-08 12:22:00,21.0,12.0,-100.00,ENE,58,2.0,6.0,67,-99.99,,,-99.99,,2013-02-08 12:22:00,
2013-02-08 12:32:00,21.0,12.0,-100.00,ENE,58,2.0,6.0,67,-99.99,,,-99.99,,2013-02-08 12:32:00,
2013-02-08 12:42:00,21.0,10.0,-100.00,ENE,78,4.0,8.0,61,-99.99,,,-99.99,,2013-02-08 12:42:00,
2013-02-08 12:52:00,21.0,10.0,-100.00,ENE,78,4.0,8.0,61,-99.99,,,-99.99,,2013-02-08 12:52:00,
2013-02-08 13:01:00,21.0,10.0,-100.00,ENE,78,4.0,8.0,61,-99.99,,,-99.99,,2013-02-08 13:01:00,
2013-02-08 13:21:00,20.0,10.0,-100.00,NNE,17,0.0,6.0,65,-99.99,,,-99.99,,2013-02-08 13:21:00,
2013-02-08 13:32:00,20.0,10.0,-100.00,NNE,17,0.0,6.0,65,-99.99,,,-99.99,,2013-02-08 13:32:00,
2013-02-08 13:42:00,22.0,10.0,-100.00,ENE,76,1.0,5.0,61,-99.99,,,-99.99,,2013-02-08 13:42:00,
2013-02-08 13:52:00,22.0,10.0,-100.00,ENE,76,1.0,5.0,61,-99.99,,,-99.99,,2013-02-08 13:52:00,
2013-02-08 14:02:00,22.0,12.0,-100.00,ESE,113,2.0,6.0,65,-99.99,,,-99.99,,2013-02-08 14:02:00,
2013-02-08 14:11:00,22.0,12.0,-100.00,ESE,113,2.0,6.0,65,-99.99,,,-99.99,,2013-02-08 14:11:00,
2013-02-08 14:21:00,21.0,12.0,-100.00,North,350,1.0,6.0,68,-99.99,,,-99.99,,2013-02-08 14:21:00,
2013-02-08 14:32:00,21.0,12.0,-100.00,North,350,1.0,6.0,68,-99.99,,,-99.99,,2013-02-08 14:32:00,
2013-02-08 14:42:00,21.0,14.0,-100.00,NNW,337,3.0,13.0,73,-99.99,,,-99.99,,2013-02-08 14:42:00,
2013-02-08 14:52:00,21.0,14.0,-100.00,NNW,337,3.0,13.0,73,-99.99,,,-99.99,,2013-02-08 14:52:00,
2013-02-08 15:01:00,21.0,14.0,-100.00,NNW,337,3.0,13.0,73,-99.99,,,-99.99,,2013-02-08 15:01:00,
2013-02-08 16:01:00,22.0,12.0,-100.00,NNE,30,2.0,12.0,66,-99.99,,,-99.99,,2013-02-08 16:01:00,
2013-02-08 16:11:00,22.0,12.0,-100.00,NNE,30,2.0,12.0,66,-99.99,,,-99.99,,2013-02-08 16:11:00,
2013-02-08 16:21:00,22.0,13.0,-100.00,ENE,76,1.0,5.0,68,-99.99,,,-99.99,,2013-02-08 16:21:00,
2013-02-08 16:32:00,22.0,13.0,-100.00,ENE,76,1.0,5.0,68,-99.99,,,-99.99,,2013-02-08 16:32:00,
2013-02-08 16:42:00,22.0,11.0,-100.00,NNW,335,4.0,10.0,61,-99.99,,,-99.99,,2013-02-08 16:42:00,
2013-02-08 16:52:00,22.0,11.0,-100.00,NNW,335,4.0,10.0,61,-99.99,,,-99.99,,2013-02-08 16:52:00,
2013-02-08 17:03:00,23.0,11.0,-100.00,NNE,30,2.0,9.0,62,-99.99,,,-99.99,,2013-02-08 17:03:00,
2013-02-08 17:12:00,23.0,11.0,-100.00,NNE,30,2.0,9.0,62,-99.99,,,-99.99,,2013-02-08 17:12:00,
2013-02-08 17:22:00,23.0,12.0,-100.00,NNW,343,4.0,20.0,63,-99.99,,,-99.99,,2013-02-08 17:22:00,
2013-02-08 17:32:00,23.0,12.0,-100.00,NNW,343,4.0,20.0,63,-99.99,,,-99.99,,2013-02-08 17:32:00,
2013-02-08 17:42:00,22.0,12.0,-100.00,NW,319,3.0,11.0,64,-99.99,,,-99.99,,2013-02-08 17:42:00,
2013-02-08 17:52:00,22.0,12.0,-100.00,NW,319,3.0,11.0,64,-99.99,,,-99.99,,2013-02-08 17:52:00,
2013-02-08 18:01:00,22.0,12.0,-100.00,NW,319,3.0,11.0,64,-99.99,,,-99.99,,2013-02-08 18:01:00,
2013-02-08 18:24:00,23.0,15.0,-100.00,NW,313,5.0,12.0,71,-99.99,,,-99.99,,2013-02-08 18:24:00,
2013-02-08 18:34:00,23.0,15.0,-100.00,NW,313,5.0,12.0,71,-99.99,,,-99.99,,2013-02-08 18:34:00,
2013-02-08 18:43:00,22.0,16.0,-100.00,NW,322,4.0,14.0,78,-99.99,,,-99.99,,2013-02-08 18:43:00,
2013-02-08 18:52:00,22.0,16.0,-100.00,NW,322,4.0,14.0,78,-99.99,,,-99.99,,2013-02-08 18:52:00,
2013-02-08 19:01:00,25.0,16.0,-100.00,NNW,340,4.0,11.0,68,-99.99,,,-99.99,,2013-02-08 19:01:00,
2013-02-08 19:11:00,25.0,16.0,-100.00,NNW,340,4.0,11.0,68,-99.99,,,-99.99,,2013-02-08 19:11:00,
2013-02-08 19:22:00,25.0,16.0,-100.00,NNW,340,4.0,11.0,68,-99.99,,,-99.99,,2013-02-08 19:22:00,
2013-02-08 19:42:00,25.0,13.0,-100.00,WSW,247,4.0,14.0,61,-99.99,,,-99.99,,2013-02-08 19:42:00,
2013-02-08 19:52:00,25.0,13.0,-100.00,WSW,247,4.0,14.0,61,-99.99,,,-99.99,,2013-02-08 19:52:00,
2013-02-08 20:01:00,26.0,14.0,-100.00,WNW,288,4.0,12.0,61,-99.99,,,-99.99,,2013-02-08 20:01:00,
2013-02-08 20:11:00,26.0,14.0,-100.00,WNW,288,4.0,12.0,61,-99.99,,,-99.99,,2013-02-08 20:11:00,
2013-02-08 20:21:00,28.0,12.0,-100.00,North,4,5.0,16.0,51,-99.99,,,-99.99,,2013-02-08 20:21:00,
2013-02-08 20:31:00,28.0,12.0,-100.00,North,4,5.0,16.0,51,-99.99,,,-99.99,,2013-02-08 20:31:00,
2013-02-08 20:41:00,26.0,11.0,-100.00,North,350,5.0,17.0,53,-99.99,,,-99.99,,2013-02-08 20:41:00,
2013-02-08 20:52:00,26.0,11.0,-100.00,North,350,5.0,17.0,53,-99.99,,,-99.99,,2013-02-08 20:52:00,
2013-02-08 21:01:00,26.0,11.0,-100.00,North,350,5.0,17.0,53,-99.99,,,-99.99,,2013-02-08 21:01:00,
2013-02-08 21:21:00,28.0,15.0,-100.00,East,86,3.0,11.0,59,-99.99,,,-99.99,,2013-02-08 21:21:00,
2013-02-08 21:32:00,28.0,15.0,-100.00,East,86,3.0,11.0,59,-99.99,,,-99.99,,2013-02-08 21:32:00,
2013-02-08 21:42:00,28.0,15.0,-100.00,SSE,164,5.0,12.0,58,-99.99,,,-99.99,,2013-02-08 21:42:00,
2013-02-08 21:52:00,28.0,15.0,-100.00,SSE,164,5.0,12.0,58,-99.99,,,-99.99,,2013-02-08 21:52:00,
2013-02-08 22:01:00,28.0,15.0,-100.00,SSE,164,5.0,12.0,58,-99.99,,,-99.99,,2013-02-08 22:01:00,
2013-02-08 22:11:00,28.0,16.0,-100.00,West,261,4.0,11.0,60,-99.99,,,-99.99,,2013-02-08 22:11:00,
2013-02-08 22:21:00,28.0,16.0,-100.00,West,261,4.0,11.0,60,-99.99,,,-99.99,,2013-02-08 22:21:00,
2013-02-08 22:32:00,27.0,12.0,-100.00,NNW,328,3.0,11.0,53,-99.99,,,-99.99,,2013-02-08 22:32:00,
2013-02-08 22:42:00,27.0,12.0,-100.00,NNW,328,3.0,11.0,53,-99.99,,,-99.99,,2013-02-08 22:42:00,
2013-02-08 22:52:00,28.0,15.0,-100.00,NE,54,3.0,9.0,56,-99.99,,,-99.99,,2013-02-08 22:52:00,
2013-02-08 23:01:00,28.0,15.0,-100.00,NE,54,3.0,9.0,56,-99.99,,,-99.99,,2013-02-08 23:01:00,
2013-02-08 23:11:00,28.0,14.0,-100.00,NW,325,3.0,16.0,55,-99.99,,,-99.99,,2013-02-08 23:11:00,
2013-02-08 23:21:00,28.0,14.0,-100.00,NW,325,3.0,16.0,55,-99.99,,,-99.99,,2013-02-08 23:21:00,
2013-02-08 23:31:00,26.0,14.0,-100.00,SSE,160,2.0,13.0,59,-99.99,,,-99.99,,2013-02-08 23:31:00,
2013-02-08 23:41:00,26.0,14.0,-100.00,SSE,160,2.0,13.0,59,-99.99,,,-99.99,,2013-02-08 23:41:00,
2013-02-08 23:52:00,26.0,13.0,-100.00,West,260,4.0,10.0,57,-99.99,,,-99.99,,2013-02-08 23:52:00,